{"data":{"norad_id":64280,"intl_designator":"2025-120AA","name":"STARLINK-34359","alt_names":[],"object_type":"PAYLOAD","status":"ACTIVE","operator":null,"country":"US","launch_date":"2025-06-04","launch_site_code":"AFWTR","launch_vehicle":null,"mission":null,"orbit_class":"UNKNOWN","rcs_meters":null,"size_class":null,"mass_kg":null,"dimensions":null,"purposes":["comms"],"wikipedia_slug":null,"has_3d_model":false,"image_url":null,"decayed_at":null,"tle_current":{"epoch":"2026-09-20T09:04:18.870816Z","epoch_age_seconds":148106,"freshness":"FRESH","line1":"1 64280U 25120AA  26263.37799619  .00012464  00000+0  37937-3 0  9998","line2":"2 64280  53.1581 290.2662 0001324  94.5767 265.5387 15.34401977 73759","mean_motion":15.34401977,"eccentricity":0.0001324,"inclination_deg":53.1581,"raan_deg":290.2662,"arg_perigee_deg":94.5767,"mean_anomaly_deg":265.5387,"bstar":0.00037937,"rev_number":7375,"period_min":93.847637163205,"perigee_km":461.79163768297,"apogee_km":463.60309062259,"semimajor_km":6840.8343641528,"source":"CELESTRAK","updated_at":"2026-09-21T09:00:35.286759Z"}}}